Location: Artiguedieu
(43.5000°N, 0.5454°E)
Time: 12:04:51
(UTC+00:00)

ERS-2 - Pass Details

Date: 06 December 2020
Orbit: 492 x 498 km, 98.6° (Epoch: 27 January)

Event Time Altitude Azimuth Distance (km) Brightness Sun altitude
Rises 04:54:41 0° 167° (SSE) 2,565 6.0 -24.9°
Reaches altitude 10° 04:56:44 10° 168° (SSE) 1,689 5.0 -24.5°
Enters shadow 04:58:35 29° 171° (S) 941 3.6 -24.2°
